Location: Dijksterburen
(53.1362°N, 5.4137°E)
Time: 00:37:36
(UTC+00:00)

Daily predictions for brighter satellites

Satellite Brightness Start Highest point End
(mag) Time Altitude Azimuth Time Altitude Azimuth Time Altitude Azimuth
Cosmos 2278 Rocket 4.4 02:51:58 19° NE 02:51:58 19° NE 02:53:37 10° NE
USA 215 3.6 03:20:25 10° ESE 03:25:43 61° E 03:25:43 61° E
COSMO-SKYMED 1 4.4 03:45:35 10° SE 03:48:35 29° E 03:48:35 29° E
MOS 1-B Rocket 4.3 03:46:39 10° SE 03:52:40 59° ENE 03:54:14 44° NNE
Cosmos 2263 Rocket 4.5 03:54:46 12° N 03:54:46 12° N 03:56:17 10° NNE
Lacrosse 4 Rocket 4.3 03:57:19 11° NNE 03:57:19 11° NNE 03:57:36 10° NNE
Cosmos 2227 Rocket 4.4 04:02:15 14° N 04:03:36 15° NNE 04:06:44 10° NE
Cosmos 1943 Rocket 2.7 04:06:39 43° SSE 04:08:11 57° ESE 04:13:44 10° NE
CZ-2C R/B 3.2 04:05:18 10° SE 04:10:38 56° ENE 04:13:24 27° N
SL-19 R/B 4.2 04:07:17 10° SSE 04:12:52 82° ENE 04:13:20 74° N
CENTAUR R/B 2.8 04:16:08 41° SSW 04:18:19 65° SE 04:25:31 10° NE
Cosmos 2297 3.9 04:21:06 42° S 04:23:05 71° ESE 04:28:48 10° NE
SL-24 R/B 4.3 04:22:21 10° NNE 04:27:26 80° ESE 04:27:43 76° SSE
NOSS 3-2 (A) 3.4 04:27:50 57° SW 04:29:11 84° SE 04:35:57 10° NE
Cosmos 2278 Rocket 3.2 04:33:50 32° NNW 04:33:50 32° NNW 04:37:42 10° NNE
Envisat 3.7 04:29:02 10° NNE 04:34:02 53° E 04:39:00 10° S
NOSS 3-2 (C) 3.8 04:33:35 26° SSW 04:36:49 62° SE 04:43:21 10° NE
SKYMED 2 3.5 04:33:00 10° SSE 04:37:12 80° ESE 04:37:12 80° ESE
SL-27 R/B 4.3 04:40:35 24° NNE 04:41:26 27° NE 04:44:32 10° ESE
Cosmos 2098 Rocket 3.9 04:39:28 10° SSE 04:43:23 52° E 04:48:21 10° NNE
Meteor 2-3 Rocket 3.6 04:38:21 10° SSW 04:44:02 81° WNW 04:49:50 10° NNE
Landsat 5 3.6 04:42:29 10° SSE 04:47:00 82° ENE 04:48:26 43° N
Cosmos 968 Rocket 3.5 04:42:38 13° SSW 04:47:13 76° ESE 04:52:21 10° NNE
Meteor 2-13 Rocket 4.5 04:42:26 10° S 04:48:33 81° E 04:54:40 10° NNE
Cosmos 921 Rocket 3.7 04:50:35 42° SSW 04:50:35 42° SSW 04:53:47 10° S
Cosmos 1833 4.2 04:51:16 35° NNW 04:53:50 86° ENE 04:59:33 10° SSE
DNEPR-1 R/B 3.7 04:53:14 63° W 04:53:51 71° SW 04:59:14 10° SSE
Meteor 1-26 Rocket 4.4 04:53:50 43° NW 04:55:18 52° W 05:00:55 10° S
Cosmos 1812 3.3 04:56:57 44° S 04:56:57 44° S 04:59:40 10° S
H-2A R/B 3.4 04:53:43 10° SE 04:57:41 38° ENE 05:01:47 10° N
SWAS 4.3 04:59:35 68° W 04:59:56 72° NW 05:04:17 10° NNE
Cosmos 2142 Rocket 4.4 04:56:01 10° NNW 05:02:22 83° W 05:08:45 10° S
Cosmos 1151 Rocket 2.9 05:01:35 49° NNW 05:02:41 72° W 05:07:02 10° S
USA 238 DEB 3.6 05:00:11 21° SW 05:04:52 90° WNW 05:11:54 10° NE
USA 238 3.6 05:00:14 20° SW 05:04:59 90° SE 05:12:00 10° NE
CZ-2C R/B 4.5 05:01:01 10° NNE 05:05:29 37° E 05:10:06 10° SSE
Cosmos 2344 3.5 05:03:34 28° WSW 05:07:45 69° NW 05:16:07 10° NE
Cosmos 1766 Rocket 3.7 05:03:50 10° S 05:08:09 72° E 05:12:29 10° NNE
USA 215 3.5 05:04:01 10° SE 05:10:19 50° SW 05:13:03 32° W
Meteor 1-31 Rocket 2.7 05:08:41 10° NNE 05:12:36 89° E 05:16:30 10° SSW
Cosmos 2279 Rocket 3.9 05:06:57 10° NNW 05:13:09 75° W 05:19:19 10° S
Kosmos-917 3.9 05:12:30 47° SW 05:13:20 85° NW 05:19:29 10° NE
Cosmos 2297 Rocket 3.8 05:09:40 12° NNW 05:14:02 28° NE 05:18:53 10° E
Cosmos 1328 Rocket 3.4 05:12:41 23° NNW 05:15:21 75° W 05:19:43 10° S
SJ-12 3.8 05:13:53 10° N 05:18:00 63° WNW 05:22:05 10° SSW
IRAS Rocket 4.1 05:13:40 10° SSE 05:19:11 88° WSW 05:24:44 10° NNW
FALCON 9 DEB 3.6 05:21:07 37° SW 05:22:06 54° SSE 05:25:26 10° E
Cosmos 2369 Rocket 2.1 05:17:05 10° SSW 05:22:42 88° ESE 05:28:21 10° NNE
Cosmos 1862 3.1 05:20:28 10° SSW 05:24:25 82° WNW 05:28:24 10° N
COSMO-SKYMED 1 3.1 05:21:33 10° SSW 05:25:33 37° W 05:25:49 36° W
H-2A R/B 2.8 05:22:24 10° N 05:26:00 48° WNW 05:29:36 10° SW
Cosmos 1607 4.4 05:23:38 20° NW 05:28:01 56° NE 05:34:07 10° ESE
Cosmos 1634 Rocket 4.3 05:22:12 10° NNW 05:28:02 41° W 05:33:49 10° SSW
Meteor 2-15 Rocket 4.4 05:26:46 10° N 05:32:54 87° E 05:38:59 10° S
Cosmos 2228 Rocket 4.4 05:29:07 10° N 05:33:23 41° ENE 05:37:40 10° SE
CZ-4B R/B 3.4 05:31:50 10° NNE 05:35:23 53° ESE 05:38:53 10° S
Lacrosse 4 Rocket 3.6 05:33:37 11° NNW 05:36:22 18° NNE 05:39:30 10° ENE
Tsikada Rocket 4.5 05:34:24 10° SW 05:40:04 36° WNW 05:45:51 10° N
Cosmos 2263 Rocket 4.3 05:37:00 10° NNW 05:40:14 15° NNE 05:43:27 10° NE
YAOGAN 6 3.6 05:37:43 10° N 05:40:14 28° NW 05:40:14 28° NW
CZ-4B R/B 2.4 05:38:10 10° SE 05:41:22 45° ENE 05:44:32 10° N
Cosmos 783 Rocket 4.5 05:37:36 17° NNW 05:41:36 66° WSW 05:46:43 10° SSE
Cosmos 1408 Rocket 3.6 05:39:14 10° S 05:43:32 79° E 05:47:51 10° NNE
USA 32 4.5 05:39:47 10° N 05:45:01 64° E 05:50:13 10° SSE
Cosmos 1656 Rocket 3.5 05:40:56 10° SSW 05:46:21 85° WNW 05:51:52 10° NNE
CZ-4C R/B 3.8 05:43:43 10° SSW 05:46:00 26° WSW 05:46:00 26° WSW
Cosmos 1503 Rocket 4.1 05:41:33 10° SSW 05:46:50 86° ESE 05:52:13 10° NNE
DMSP B5D2-2 4.1 05:41:46 10° S 05:46:56 62° WSW 05:52:07 10° NNW
Cosmos 2227 Rocket 3.6 05:44:23 10° NNW 05:49:30 33° NE 05:54:35 10° ESE
Cosmos 1743 Rocket 4.4 05:46:37 10° S 05:50:54 54° E 05:55:11 10° NNE
CZ-2C R/B 3.5 05:46:31 10° SSW 05:51:14 29° W 05:54:54 15° NW
Cosmos 1943 Rocket 2.7 05:48:15 16° WSW 05:52:14 37° NW 05:57:29 10° NNE
Cosmos 1486 Rocket 4.1 05:49:21 10° SW 05:54:34 57° WNW 05:59:47 10° NNE
Cosmos 1515 Rocket 3.6 05:51:22 10° NNW 05:55:39 53° W 05:59:53 10° S
FALCON 9 DEB 2.6 05:56:51 26° W 05:58:19 86° S 06:01:13 10° E
Meteor 1-27 Rocket 3.7 05:53:01 10° NNW 05:58:37 69° W 06:04:17 10° S
PSLV R/B 4.3 05:54:47 10° SSE 05:58:49 65° ENE 06:02:54 10° N
COSMOS 2487 2.4 05:59:58 13° NNW 06:02:58 75° ENE 06:06:18 10° SSE
Cosmos 773 Rocket 4.2 05:58:39 13° NW 06:03:11 50° WSW 06:08:11 10° S
FALCON 9 DEB 2.5 06:03:16 23° W 06:04:52 90° W 06:07:44 10° E
Cosmos 2084 Rocket 4.4 06:04:32 19° WNW 06:06:17 27° NNW 06:09:41 10° NE
NOAA 11 4.2 06:01:23 10° N 06:06:48 63° WNW 06:12:12 10° SSW
FALCON 9 DEB 2.5 06:05:15 22° W 06:06:55 89° NE 06:09:47 10° E
Cosmos 2297 4.5 06:03:07 12° W 06:07:45 32° NW 06:12:51 10° NNE
SJ 16-02 2.0 06:03:48 10° S 06:08:06 58° ESE 06:12:25 10° NNE
Alouette 2 Rocket 3.2 06:05:07 10° NNW 06:09:17 69° WSW 06:12:48 10° S
CENTAUR R/B 3.0 06:03:21 11° W 06:09:21 51° NNW 06:16:54 10° NE
NOAA 12 4.0 06:06:42 10° NNE 06:12:01 82° WNW 06:17:16 10° SSW
Envisat 3.8 06:08:28 10° N 06:12:50 29° WNW 06:17:11 10° WSW
Cosmos 1689 Rocket 4.4 06:12:43 10° ESE 06:14:39 19° ENE 06:16:37 10° NNE
Meteor 2-19 Rocket 4.4 06:08:42 10° SSW 06:14:43 68° WNW 06:20:47 10° N
Cosmos 1340 Rocket 2.8 06:12:21 10° S 06:16:19 87° ESE 06:20:21 10° NNE
SL-27 R/B 3.3 06:14:05 15° NW 06:16:29 32° WSW 06:19:41 10° S
Cosmos 2278 Rocket 3.9 06:15:42 12° NW 06:18:13 16° NNW 06:21:35 10° NNE
Cosmos 1939 Rocket 2.7 06:14:41 10° N 06:18:40 73° WNW 06:22:33 10° SSW
Cosmos 1500 Rocket 3.5 06:15:19 10° SSW 06:19:47 79° WNW 06:24:18 10° N
Cosmos 2219 4.0 06:14:51 10° NNW 06:20:19 47° NE 06:25:47 10° ESE
NOSS 3-2 (A) 4.1 06:15:14 12° W 06:20:42 42° NNW 06:27:28 10° NE
FALCON 9 DEB 2.6 06:21:30 14° W 06:23:57 90° NNW 06:26:51 10° E
GENESIS II 4.4 06:21:13 12° NW 06:24:53 69° NE 06:28:50 10° SE
Cosmos 2098 Rocket 4.3 06:21:27 10° WSW 06:24:55 23° WNW 06:29:03 10° N
Aureole 1 Rocket 4.3 06:26:23 11° NW 06:26:23 11° NW 06:27:32 10° NNW
Cosmos 1707 Rocket 4.0 06:23:00 10° N 06:27:25 67° ENE 06:31:51 10° SSE
NOSS 3-2 (C) 3.8 06:22:11 10° W 06:28:00 49° NNW 06:34:50 10° NE
Okean O Rocket 3.5 06:24:55 10° NNE 06:29:01 35° E 06:33:03 10° SSE
Cosmos 968 Rocket 4.5 06:25:23 10° W 06:29:35 25° NW 06:33:47 10° N
Cosmos 1805 Rocket 3.6 06:27:01 10° S 06:31:24 84° E 06:35:48 10° NNE
Sich 1 3.3 06:28:58 10° S 06:33:14 71° E 06:37:30 10° NNE
H-2A R/B 2.9 06:29:57 10° SSW 06:33:44 30° W 06:37:38 10° NNW
Cosmos 2026 Rocket 4.2 06:27:57 10° S 06:34:18 84° E 06:40:36 10° NNE
Meteor 1-25 Rocket 4.3 06:30:11 10° S 06:35:49 87° ESE 06:41:26 10° NNE
ATLAS 3B R/B 3.5 06:29:59 10° SSW 06:36:22 57° SE 06:43:06 10° NE
Cosmos 1553 Rocket 4.2 06:30:34 10° N 06:36:41 76° ENE 06:42:46 10° SSE
ADEOS 4.1 06:32:14 10° N 06:36:58 35° WNW 06:41:40 10° SW
Cosmos 2195 Rocket 4.5 06:31:21 10° SSW 06:37:30 82° W 06:43:39 10° N
Cosmos 158 Rocket 4.2 06:33:39 10° NNW 06:38:36 53° WSW 06:43:39 10° S
Cosmos 1174 4.1 06:36:35 10° SSW 06:39:30 52° SE 06:42:39 10° NE
Cosmos 1500 3.5 06:36:04 10° S 06:39:52 71° E 06:43:40 10° NNE
Cosmos 1862 Rocket 4.3 06:35:43 10° N 06:39:58 54° ENE 06:44:13 10° SSE
ATLAS 5 CENTAUR R/B 2.3 06:36:12 10° SSW 06:40:00 54° SE 06:44:24 10° NE
Cosmos 1515 4.3 06:40:37 10° NNW 06:44:08 36° W 06:47:38 10° SSW
Okean 1 3.3 06:41:14 10° NNW 06:45:10 62° W 06:49:04 10° S
CZ-2C R/B 3.4 06:41:00 10° N 06:45:25 37° WNW 06:49:58 10° SW
Cosmos 1354 Rocket 4.3 06:42:07 10° SW 06:47:11 44° NW 06:52:18 10° NNE
Meteor 1-18 Rocket 4.3 06:45:26 10° NNW 06:51:20 77° W 06:57:06 10° S
Timation 1 Rocket 4.4 06:49:24 10° NW 06:55:26 84° WSW 07:01:24 10° SSE
USA 238 DEB 4.2 06:50:14 10° W 06:56:34 42° NNW 07:03:20 10° NE
USA 238 4.2 06:50:19 10° W 06:56:40 42° NNW 07:03:26 10° NE
